Find STARLINK-38103

NORAD ID: 100022 Int'l Des: 2026-160X Owner: SPXS Country: US Constellation: starlink operational

Aktuelle Ansicht

3D-Globus wird geladen...

About STARLINK-38103

STARLINK-38103 (NORAD 100022) is a starlink constellation satellite (v2 mini) launched Jul 14, 2026 by SPXS of US. with a mass of 575.00 kg.

Nächste Überflüge

Passes for default location (London). Set your location on the main map for personalized predictions.

Höhenverlauf

Loading altitude history...

Zweizeiliger Elementsatz

1 A0022U 26160X 26224.60438515 .00138206 00000-0 99843-3 0 9993
2 A0022 69.9994 304.8380 0003702 293.2098 66.8709 15.72929816 5879
Epoch: 12. Aug. 2026 • Age: 24 hours

Aktueller Status

Höhe 355.1 km
Apogäum / Perigäum N/A
Geschwindigkeit 7.70 km/s
Subsatellitenpunkt -19.70°S, 109.95°E
Startdatum 14. Juli 2026
Alter 30 days
Typ internet

Technische Details

Klassifizierung Payload
Masse 575.00 kg
Trockenmasse 530.00 kg
Gesamtmasse 575.00 kg
Länge 0.30 m
Durchmesser 4.10 m
Spannweite 29.00 m
Form Box + pan
Hersteller SPXS
Bus-Typ Starlink V2MO
Phasenstatus In Orbit
Besitzer/Staat SPXS/US

Most Searched